| time (UTC) | temp F | wind direction | speed MPH | gust MPH | rain 1hr in | rain 24hr in | rain mn in | humidity % | barometer mb |
| 20260902142306 | 65 | 193 | 6.0 | 10.0 | 0.00 | 0.00 | 0.00 | 40 | 1030.3 |
| 20260902141803 | 65 | 209 | 11.0 | 18.0 | 0.00 | 0.00 | 0.00 | 41 | 1030.3 |
| 20260902140803 | 64 | 159 | 5.0 | 10.0 | 0.00 | 0.00 | 0.00 | 41 | 1030.3 |
| 20260902140303 | 64 | 315 | 6.0 | 10.0 | 0.00 | 0.00 | 0.00 | 42 | 1030.1 |
| 20260902135803 | 63 | 263 | 3.0 | 7.0 | 0.00 | 0.00 | 0.00 | 42 | 1030.4 |
| 20260902135306 | 63 | 270 | 5.0 | 13.0 | 0.00 | 0.00 | 0.00 | 43 | 1030.1 |
| 20260902134303 | 62 | 270 | 7.0 | 12.0 | 0.00 | 0.00 | 0.00 | 45 | 1030.4 |
| 20260902133803 | 62 | 270 | 5.0 | 8.0 | 0.00 | 0.00 | 0.00 | 45 | 1030.1 |
| 20260902133303 | 62 | 295 | 5.0 | 8.0 | 0.00 | 0.00 | 0.00 | 45 | 1030.1 |
| 20260902132803 | 61 | 280 | 10.0 | 14.0 | 0.00 | 0.00 | 0.00 | 47 | 1030.1 |
| 20260902132306 | 60 | 241 | 0.0 | 5.0 | 0.00 | 0.00 | 0.00 | 49 | 1030.1 |
| 20260902131804 | 59 | 225 | 0.0 | 3.0 | 0.00 | 0.00 | 0.00 | 50 | 1030.1 |
| 20260902130803 | 58 | 225 | 6.0 | 9.0 | 0.00 | 0.00 | 0.00 | 49 | 1030.1 |
| 20260902125803 | 57 | 225 | 6.0 | 8.0 | 0.00 | 0.00 | 0.00 | 51 | 1030.1 |
| 20260902125305 | 56 | 246 | 6.0 | 8.0 | 0.00 | 0.00 | 0.00 | 52 | 1029.9 |
| 20260902124803 | 56 | 180 | 6.0 | 8.0 | 0.00 | 0.00 | 0.00 | 52 | 1029.8 |
| 20260902124303 | 57 | 276 | 6.0 | 8.0 | 0.00 | 0.00 | 0.00 | 50 | 1030.1 |
| 20260902123803 | 59 | 247 | 7.0 | 9.0 | 0.00 | 0.00 | 0.00 | 47 | 1029.8 |
| 20260902122803 | 58 | 280 | 5.0 | 8.0 | 0.00 | 0.00 | 0.00 | 48 | 1029.8 |
| 20260902122305 | 57 | 306 | 6.0 | 8.0 | 0.00 | 0.00 | 0.00 | 50 | 1029.8 |
| 20260902120803 | 57 | 270 | 5.0 | 14.0 | 0.00 | 0.00 | 0.00 | 50 | 1029.8 |
| 20260902120303 | 56 | 264 | 9.0 | 15.0 | 0.00 | 0.00 | 0.00 | 52 | 1029.8 |
| 20260902115803 | 56 | 225 | 7.0 | 8.0 | 0.00 | 0.00 | 0.00 | 52 | 1029.6 |
| 20260902114803 | 56 | 247 | 2.0 | 7.0 | 0.00 | 0.00 | 0.00 | 53 | 1029.6 |
| 20260902114303 | 55 | 270 | 2.0 | 7.0 | 0.00 | 0.00 | 0.00 | 56 | 1029.5 |
| 20260902113803 | 55 | 232 | 5.0 | 9.0 | 0.00 | 0.00 | 0.00 | 56 | 1029.6 |
| 20260902113303 | 55 | 180 | 4.0 | 8.0 | 0.00 | 0.00 | 0.00 | 56 | 1029.4 |
| 20260902112803 | 54 | 136 | 3.0 | 5.0 | 0.00 | 0.00 | 0.00 | 58 | 1029.4 |
| 20260902112305 | 53 | 180 | 6.0 | 9.0 | 0.00 | 0.00 | 0.00 | 59 | 1029.6 |
| 20260902111804 | 53 | 225 | 6.0 | 10.0 | 0.00 | 0.00 | 0.00 | 59 | 1029.8 |
| 20260902111303 | 53 | 227 | 6.0 | 8.0 | 0.00 | 0.00 | 0.00 | 59 | 1029.4 |
| 20260902110804 | 53 | 135 | 4.0 | 6.0 | 0.00 | 0.00 | 0.00 | 60 | 1029.4 |
| 20260902110303 | 53 | 203 | 7.0 | 7.0 | 0.00 | 0.00 | 0.00 | 61 | 1029.6 |
| 20260902105306 | 53 | 225 | 3.0 | 5.0 | 0.00 | 0.00 | 0.00 | 62 | 1029.4 |
| 20260902104303 | 55 | 229 | 4.0 | 6.0 | 0.00 | 0.00 | 0.00 | 60 | 1029.4 |
| 20260902103303 | 56 | 45 | 6.0 | 6.0 | 0.00 | 0.00 | 0.00 | 57 | 1029.2 |
| 20260902102804 | 56 | 45 | 3.0 | 7.0 | 0.00 | 0.00 | 0.00 | 57 | 1029.4 |
| 20260902102307 | 56 | 90 | 2.0 | 5.0 | 0.00 | 0.00 | 0.00 | 58 | 1029.4 |
| 20260902101804 | 56 | 157 | 0.0 | 3.0 | 0.00 | 0.00 | 0.00 | 59 | 1029.4 |
| 20260902101303 | 56 | 180 | 2.0 | 5.0 | 0.00 | 0.00 | 0.00 | 59 | 1029.4 |
| 20260902100803 | 55 | 225 | 6.0 | 8.0 | 0.00 | 0.00 | 0.00 | 60 | 1029.6 |
| 20260902100303 | 55 | 225 | 6.0 | 7.0 | 0.00 | 0.00 | 0.00 | 60 | 1029.4 |
| 20260902095803 | 55 | 225 | 1.0 | 2.0 | 0.00 | 0.00 | 0.00 | 61 | 1029.6 |
| 20260902094803 | 54 | 198 | 5.0 | 7.0 | 0.00 | 0.00 | 0.00 | 63 | 1029.8 |
| 20260902093803 | 55 | 225 | 6.0 | 7.0 | 0.00 | 0.00 | 0.00 | 62 | 1029.4 |
| 20260902092803 | 56 | 225 | 2.0 | 5.0 | 0.00 | 0.00 | 0.00 | 60 | 1029.8 |
| 20260902092305 | 57 | 207 | 5.0 | 6.0 | 0.00 | 0.00 | 0.00 | 59 | 1029.8 |
| 20260902091803 | 57 | 135 | 0.0 | 3.0 | 0.00 | 0.00 | 0.00 | 59 | 1029.8 |
| 20260902091303 | 59 | 225 | 4.0 | 6.0 | 0.00 | 0.00 | 0.00 | 57 | 1029.8 |
| 20260902090803 | 60 | 171 | 5.0 | 6.0 | 0.00 | 0.00 | 0.00 | 54 | 1029.8 |
| 20260902090303 | 61 | 48 | 3.0 | 12.0 | 0.00 | 0.00 | 0.00 | 52 | 1029.6 |
| 20260902085803 | 62 | 53 | 6.0 | 15.0 | 0.00 | 0.00 | 0.00 | 52 | 1029.8 |
| 20260902085306 | 61 | 341 | 7.0 | 23.0 | 0.00 | 0.00 | 0.00 | 54 | 1029.6 |
| 20260902084804 | 60 | 325 | 7.0 | 16.0 | 0.00 | 0.01 | 0.00 | 55 | 1029.4 |
| 20260902084303 | 61 | 327 | 5.0 | 13.0 | 0.00 | 0.01 | 0.00 | 54 | 1029.8 |
| 20260902083303 | 60 | 237 | 6.0 | 12.0 | 0.00 | 0.01 | 0.00 | 56 | 1029.8 |
| 20260902082803 | 59 | 283 | 5.0 | 17.0 | 0.00 | 0.02 | 0.00 | 57 | 1029.6 |
| 20260902081803 | 58 | 346 | 2.0 | 7.0 | 0.00 | 0.02 | 0.00 | 59 | 1029.8 |
| 20260902080803 | 57 | 225 | 6.0 | 7.0 | 0.00 | 0.02 | 0.00 | 59 | 1029.8 |
| 20260902080303 | 57 | 225 | 2.0 | 5.0 | 0.00 | 0.02 | 0.00 | 59 | 1029.8 |
| 20260902075804 | 57 | 225 | 4.0 | 7.0 | 0.00 | 0.02 | 0.00 | 59 | 1029.8 |
| 20260902075306 | 58 | 180 | 3.0 | 7.0 | 0.00 | 0.02 | 0.00 | 58 | 1029.8 |
| 20260902074803 | 59 | 233 | 2.0 | 3.0 | 0.00 | 0.02 | 0.00 | 58 | 1029.8 |
| 20260902074303 | 58 | 308 | 5.0 | 6.0 | 0.00 | 0.02 | 0.00 | 59 | 1029.8 |
| 20260902073803 | 57 | 258 | 5.0 | 8.0 | 0.00 | 0.02 | 0.00 | 59 | 1029.8 |
| 20260902073303 | 58 | 225 | 6.0 | 8.0 | 0.00 | 0.04 | 0.00 | 58 | 1029.9 |
| 20260902072804 | 58 | 270 | 2.0 | 3.0 | 0.00 | 0.06 | 0.00 | 58 | 1029.9 |
| 20260902072308 | 58 | 315 | 1.0 | 2.0 | 0.00 | 0.07 | 0.00 | 60 | 1029.8 |
| 20260902071804 | 57 | 225 | 1.0 | 6.0 | 0.00 | 0.08 | 0.00 | 61 | 1029.9 |
| 20260902071303 | 56 | 225 | 6.0 | 7.0 | 0.00 | 0.08 | 0.00 | 62 | 1029.8 |
| 20260902070803 | 56 | 225 | 6.0 | 7.0 | 0.00 | 0.08 | 0.00 | 62 | 1029.8 |
| 20260902070303 | 56 | 270 | 3.0 | 8.0 | 0.00 | 0.08 | 0.00 | 63 | 1029.8 |
| 20260902065306 | 55 | 180 | 7.0 | 9.0 | 0.00 | 0.08 | 0.00 | 64 | 1029.8 |
| 20260902063803 | 55 | 247 | 8.0 | 10.0 | 0.00 | 0.08 | 0.00 | 65 | 1029.8 |
| 20260902063304 | 55 | 225 | 8.0 | 10.0 | 0.00 | 0.08 | 0.00 | 65 | 1029.8 |
| 20260902062306 | 56 | 225 | 5.0 | 8.0 | 0.00 | 0.08 | 0.00 | 64 | 1029.8 |
| 20260902061804 | 56 | 270 | 3.0 | 5.0 | 0.00 | 0.08 | 0.00 | 64 | 1029.9 |
| 20260902061304 | 56 | 270 | 0.0 | 3.0 | 0.00 | 0.08 | 0.00 | 63 | 1029.9 |
| 20260902060304 | 57 | 270 | 7.0 | 12.0 | 0.00 | 0.08 | 0.00 | 62 | 1029.8 |
| 20260902055803 | 56 | 259 | 8.0 | 12.0 | 0.00 | 0.08 | 0.08 | 63 | 1029.8 |
| 20260902054803 | 56 | 253 | 8.0 | 9.0 | 0.00 | 0.08 | 0.08 | 62 | 1029.8 |
| 20260902054304 | 57 | 250 | 7.0 | 9.0 | 0.00 | 0.08 | 0.08 | 62 | 1029.8 |
| 20260902053803 | 57 | 225 | 7.0 | 9.0 | 0.00 | 0.08 | 0.08 | 61 | 1029.8 |
| 20260902053303 | 57 | 225 | 6.0 | 8.0 | 0.00 | 0.08 | 0.08 | 61 | 1029.8 |
| 20260902052803 | 57 | 225 | 7.0 | 8.0 | 0.00 | 0.08 | 0.08 | 61 | 1029.9 |
| 20260902052306 | 57 | 225 | 5.0 | 7.0 | 0.00 | 0.08 | 0.08 | 61 | 1029.9 |
| 20260902051803 | 57 | 225 | 3.0 | 6.0 | 0.00 | 0.08 | 0.08 | 61 | 1029.8 |
| 20260902051303 | 57 | 270 | 5.0 | 10.0 | 0.00 | 0.08 | 0.08 | 61 | 1029.8 |
| 20260902050803 | 57 | 270 | 9.0 | 13.0 | 0.00 | 0.08 | 0.08 | 62 | 1029.8 |
| 20260902050303 | 56 | 270 | 6.0 | 12.0 | 0.00 | 0.08 | 0.08 | 63 | 1029.8 |
| 20260902045306 | 57 | 225 | 6.0 | 8.0 | 0.00 | 0.08 | 0.08 | 62 | 1029.9 |
| 20260902044803 | 57 | 225 | 7.0 | 8.0 | 0.00 | 0.08 | 0.08 | 62 | 1029.8 |
| 20260902044304 | 56 | 225 | 7.0 | 9.0 | 0.00 | 0.08 | 0.08 | 63 | 1029.9 |
| 20260902043803 | 57 | 225 | 9.0 | 10.0 | 0.00 | 0.08 | 0.08 | 63 | 1029.9 |
| 20260902042803 | 58 | 180 | 5.0 | 8.0 | 0.00 | 0.08 | 0.08 | 61 | 1030.1 |
| 20260902042308 | 59 | 180 | 5.0 | 7.0 | 0.00 | 0.08 | 0.08 | 60 | 1029.8 |
| 20260902041804 | 58 | 225 | 6.0 | 8.0 | 0.00 | 0.08 | 0.08 | 60 | 1029.9 |
| 20260902041304 | 58 | 225 | 7.0 | 9.0 | 0.00 | 0.08 | 0.08 | 61 | 1030.1 |
| 20260902040303 | 58 | 225 | 8.0 | 10.0 | 0.00 | 0.08 | 0.08 | 61 | 1030.1 |
| 20260902035804 | 58 | 225 | 8.0 | 10.0 | 0.00 | 0.08 | 0.08 | 61 | 1029.9 |
| 20260902035305 | 59 | 197 | 8.0 | 10.0 | 0.00 | 0.08 | 0.08 | 60 | 1029.9 |
| 20260902034803 | 59 | 225 | 7.0 | 8.0 | 0.00 | 0.08 | 0.08 | 60 | 1029.9 |
| 20260902034303 | 59 | 180 | 5.0 | 7.0 | 0.00 | 0.08 | 0.08 | 59 | 1029.9 |
| 20260902033804 | 60 | 135 | 6.0 | 9.0 | 0.00 | 0.08 | 0.08 | 58 | 1029.8 |
| 20260902033304 | 59 | 90 | 6.0 | 8.0 | 0.00 | 0.08 | 0.08 | 58 | 1029.8 |
| 20260902032804 | 59 | 80 | 3.0 | 6.0 | 0.00 | 0.08 | 0.08 | 60 | 1029.8 |
| 20260902032305 | 59 | 16 | 5.0 | 8.0 | 0.00 | 0.08 | 0.08 | 61 | 1029.8 |
| 20260902031803 | 60 | 225 | 7.0 | 8.0 | 0.00 | 0.08 | 0.08 | 61 | 1029.6 |
| 20260902031303 | 60 | 225 | 7.0 | 8.0 | 0.00 | 0.08 | 0.08 | 60 | 1029.6 |
| 20260902030803 | 61 | 225 | 5.0 | 6.0 | 0.00 | 0.08 | 0.08 | 58 | 1029.6 |
| 20260902030304 | 62 | 225 | 6.0 | 7.0 | 0.00 | 0.08 | 0.08 | 56 | 1029.6 |
| 20260902025803 | 62 | 247 | 6.0 | 9.0 | 0.00 | 0.08 | 0.08 | 56 | 1029.4 |
| 20260902025306 | 63 | 270 | 3.0 | 5.0 | 0.00 | 0.08 | 0.08 | 53 | 1029.4 |
| 20260902024304 | 63 | 0 | 5.0 | 7.0 | 0.00 | 0.08 | 0.08 | 50 | 1029.4 |
| 20260902023804 | 63 | 90 | 2.0 | 5.0 | 0.00 | 0.08 | 0.08 | 50 | 1029.3 |
| 20260902022803 | 61 | 15 | 2.0 | 9.0 | 0.00 | 0.08 | 0.08 | 55 | 1029.2 |
| 20260902022306 | 61 | 200 | 2.0 | 3.0 | 0.00 | 0.08 | 0.08 | 58 | 1029.1 |
| 20260902021804 | 61 | 225 | 2.0 | 5.0 | 0.00 | 0.08 | 0.08 | 59 | 1029.1 |
| 20260902021303 | 61 | 225 | 4.0 | 8.0 | 0.00 | 0.08 | 0.08 | 60 | 1029.1 |
| 20260902020804 | 61 | 204 | 4.0 | 7.0 | 0.00 | 0.08 | 0.08 | 59 | 1029.1 |
| 20260902020303 | 61 | 292 | 5.0 | 9.0 | 0.00 | 0.09 | 0.08 | 59 | 1029.1 |
| 20260902015803 | 61 | 323 | 6.0 | 9.0 | 0.00 | 0.11 | 0.08 | 59 | 1028.9 |
| 20260902015306 | 61 | 357 | 7.0 | 10.0 | 0.00 | 0.11 | 0.08 | 59 | 1029.1 |
| 20260902014303 | 63 | 339 | 9.0 | 12.0 | 0.00 | 0.11 | 0.08 | 54 | 1028.7 |
| 20260902013804 | 64 | 288 | 8.0 | 14.0 | 0.00 | 0.11 | 0.08 | 53 | 1028.9 |
| 20260902013304 | 64 | 270 | 10.0 | 15.0 | 0.00 | 0.11 | 0.08 | 53 | 1028.7 |
| 20260902012803 | 65 | 268 | 9.0 | 13.0 | 0.00 | 0.11 | 0.08 | 52 | 1028.7 |
| 20260902012309 | 65 | 270 | 9.0 | 13.0 | 0.00 | 0.11 | 0.08 | 51 | 1028.7 |
| 20260902011303 | 65 | 270 | 12.0 | 18.0 | 0.00 | 0.11 | 0.08 | 51 | 1028.4 |
| 20260902010803 | 66 | 268 | 12.0 | 18.0 | 0.00 | 0.11 | 0.08 | 51 | 1028.4 |
| 20260902010303 | 66 | 263 | 14.0 | 20.0 | 0.00 | 0.11 | 0.08 | 50 | 1028.4 |
| 20260902005804 | 66 | 245 | 12.0 | 17.0 | 0.00 | 0.11 | 0.08 | 49 | 1028.4 |
| 20260902005306 | 66 | 251 | 12.0 | 17.0 | 0.00 | 0.11 | 0.08 | 49 | 1028.4 |
| 20260902004803 | 66 | 255 | 9.0 | 13.0 | 0.00 | 0.11 | 0.08 | 49 | 1028.4 |
| 20260902004304 | 67 | 270 | 8.0 | 10.0 | 0.00 | 0.11 | 0.08 | 49 | 1028.4 |
| 20260902003304 | 67 | 261 | 6.0 | 10.0 | 0.00 | 0.12 | 0.08 | 47 | 1028.4 |
| 20260902002803 | 67 | 244 | 9.0 | 13.0 | 0.00 | 0.12 | 0.08 | 47 | 1028.4 |
| 20260902002306 | 67 | 249 | 7.0 | 12.0 | 0.00 | 0.12 | 0.08 | 48 | 1028.4 |
| 20260902001304 | 67 | 270 | 8.0 | 12.0 | 0.00 | 0.12 | 0.08 | 47 | 1028.4 |
| 20260902000803 | 67 | 270 | 10.0 | 14.0 | 0.00 | 0.12 | 0.08 | 46 | 1028.4 |
| 20260901235803 | 68 | 267 | 10.0 | 14.0 | 0.00 | 0.12 | 0.08 | 46 | 1028.4 |
| 20260901235307 | 68 | 230 | 10.0 | 15.0 | 0.00 | 0.12 | 0.08 | 46 | 1028.4 |
| 20260901234804 | 68 | 257 | 11.0 | 17.0 | 0.00 | 0.12 | 0.08 | 46 | 1028.4 |
| 20260901234303 | 68 | 270 | 9.0 | 12.0 | 0.00 | 0.12 | 0.08 | 45 | 1028.4 |
| 20260901233804 | 69 | 269 | 7.0 | 12.0 | 0.00 | 0.12 | 0.08 | 44 | 1028.4 |
| 20260901233303 | 69 | 270 | 8.0 | 13.0 | 0.00 | 0.12 | 0.08 | 43 | 1028.4 |
| 20260901232804 | 69 | 268 | 7.0 | 14.0 | 0.00 | 0.12 | 0.08 | 43 | 1028.4 |
| 20260901231804 | 70 | 246 | 9.0 | 13.0 | 0.00 | 0.12 | 0.08 | 41 | 1028.3 |
| 20260901231303 | 70 | 255 | 9.0 | 12.0 | 0.00 | 0.12 | 0.08 | 41 | 1028.4 |
| 20260901230803 | 70 | 264 | 7.0 | 13.0 | 0.00 | 0.12 | 0.08 | 40 | 1028.4 |
| 20260901230303 | 70 | 258 | 8.0 | 12.0 | 0.00 | 0.12 | 0.08 | 39 | 1028.4 |
| 20260901225803 | 70 | 260 | 8.0 | 12.0 | 0.00 | 0.12 | 0.08 | 39 | 1028.4 |
| 20260901225306 | 70 | 270 | 9.0 | 13.0 | 0.00 | 0.12 | 0.08 | 40 | 1028.4 |
| 20260901224303 | 70 | 239 | 9.0 | 12.0 | 0.00 | 0.12 | 0.08 | 38 | 1028.4 |
| 20260901223804 | 70 | 247 | 9.0 | 14.0 | 0.00 | 0.12 | 0.08 | 38 | 1028.4 |
| 20260901223304 | 70 | 231 | 13.0 | 17.0 | 0.00 | 0.12 | 0.08 | 38 | 1028.4 |
| 20260901222804 | 70 | 239 | 10.0 | 16.0 | 0.00 | 0.12 | 0.08 | 37 | 1028.5 |
| 20260901222306 | 71 | 254 | 9.0 | 14.0 | 0.00 | 0.12 | 0.08 | 36 | 1028.4 |
| 20260901221803 | 71 | 213 | 9.0 | 14.0 | 0.00 | 0.12 | 0.08 | 35 | 1028.5 |
| 20260901221303 | 71 | 231 | 8.0 | 12.0 | 0.00 | 0.12 | 0.08 | 35 | 1028.5 |
| 20260901220804 | 71 | 270 | 13.0 | 16.0 | 0.00 | 0.12 | 0.08 | 34 | 1028.6 |
| 20260901220304 | 71 | 247 | 5.0 | 12.0 | 0.00 | 0.12 | 0.08 | 34 | 1028.7 |
| 20260901215804 | 72 | 254 | 6.0 | 15.0 | 0.00 | 0.12 | 0.08 | 33 | 1028.7 |
| 20260901215306 | 72 | 278 | 7.0 | 15.0 | 0.00 | 0.12 | 0.08 | 33 | 1028.7 |
| 20260901214803 | 72 | 251 | 14.0 | 20.0 | 0.00 | 0.12 | 0.08 | 33 | 1028.7 |
| 20260901214304 | 72 | 230 | 9.0 | 15.0 | 0.00 | 0.12 | 0.08 | 33 | 1028.7 |
| 20260901213803 | 72 | 249 | 7.0 | 18.0 | 0.00 | 0.12 | 0.08 | 33 | 1028.9 |
| 20260901213304 | 72 | 235 | 5.0 | 12.0 | 0.00 | 0.12 | 0.08 | 34 | 1028.7 |
| 20260901212306 | 72 | 225 | 12.0 | 18.0 | 0.00 | 0.12 | 0.08 | 34 | 1028.7 |
| 20260901211804 | 71 | 245 | 6.0 | 13.0 | 0.00 | 0.12 | 0.08 | 34 | 1028.9 |
| 20260901211304 | 72 | 271 | 9.0 | 20.0 | 0.00 | 0.12 | 0.08 | 34 | 1029.1 |
| 20260901210803 | 72 | 276 | 13.0 | 20.0 | 0.00 | 0.12 | 0.08 | 34 | 1029.1 |
| 20260901210304 | 72 | 241 | 7.0 | 24.0 | 0.00 | 0.12 | 0.08 | 33 | 1029.1 |
| 20260901205804 | 73 | 274 | 14.0 | 24.0 | 0.00 | 0.12 | 0.08 | 33 | 1029.1 |
| 20260901205306 | 72 | 176 | 7.0 | 18.0 | 0.00 | 0.12 | 0.08 | 33 | 1029.1 |
| 20260901203804 | 71 | 315 | 3.0 | 7.0 | 0.00 | 0.12 | 0.08 | 35 | 1029.4 |
| 20260901203304 | 70 | 74 | 4.0 | 8.0 | 0.00 | 0.12 | 0.08 | 36 | 1029.6 |
| 20260901202804 | 70 | 299 | 12.0 | 16.0 | 0.00 | 0.12 | 0.08 | 35 | 1029.4 |
| 20260901202306 | 70 | 224 | 7.0 | 20.0 | 0.00 | 0.12 | 0.08 | 35 | 1029.8 |
| 20260901201304 | 71 | 255 | 13.0 | 20.0 | 0.00 | 0.12 | 0.08 | 36 | 1029.6 |
| 20260901200804 | 70 | 299 | 5.0 | 10.0 | 0.00 | 0.12 | 0.08 | 35 | 1029.8 |
| 20260901200304 | 70 | 296 | 7.0 | 13.0 | 0.00 | 0.12 | 0.08 | 35 | 1029.8 |
| 20260901195803 | 70 | 270 | 9.0 | 18.0 | 0.00 | 0.12 | 0.08 | 34 | 1029.8 |
| 20260901195306 | 70 | 270 | 14.0 | 22.0 | 0.00 | 0.12 | 0.08 | 34 | 1029.8 |
| 20260901194804 | 70 | 285 | 9.0 | 20.0 | 0.00 | 0.12 | 0.08 | 34 | 1029.8 |
| 20260901193803 | 70 | 306 | 10.0 | 15.0 | 0.00 | 0.12 | 0.08 | 34 | 1030.0 |
| 20260901193304 | 70 | 291 | 6.0 | 12.0 | 0.00 | 0.12 | 0.08 | 34 | 1030.1 |
| 20260901192306 | 69 | 275 | 8.0 | 12.0 | 0.00 | 0.12 | 0.08 | 35 | 1030.1 |
| 20260901191804 | 69 | 270 | 12.0 | 16.0 | 0.00 | 0.12 | 0.08 | 36 | 1029.9 |
| 20260901191303 | 69 | 300 | 12.0 | 21.0 | 0.00 | 0.12 | 0.08 | 36 | 1030.1 |
| 20260901185804 | 68 | 269 | 12.0 | 21.0 | 0.00 | 0.12 | 0.08 | 37 | 1030.1 |
| 20260901185306 | 68 | 282 | 6.0 | 17.0 | 0.00 | 0.12 | 0.08 | 38 | 1030.2 |
| 20260901184303 | 68 | 265 | 8.0 | 21.0 | 0.00 | 0.12 | 0.08 | 37 | 1030.4 |
| 20260901183804 | 67 | 270 | 14.0 | 22.0 | 0.00 | 0.12 | 0.08 | 38 | 1030.3 |
| 20260901183303 | 67 | 270 | 14.0 | 20.0 | 0.00 | 0.12 | 0.08 | 39 | 1030.7 |
| 20260901182804 | 67 | 270 | 11.0 | 20.0 | 0.00 | 0.12 | 0.08 | 39 | 1030.4 |
| 20260901182305 | 67 | 246 | 16.0 | 24.0 | 0.00 | 0.12 | 0.08 | 40 | 1030.7 |
| 20260901181804 | 67 | 259 | 10.0 | 17.0 | 0.00 | 0.12 | 0.08 | 41 | 1030.4 |
| 20260901181303 | 67 | 270 | 12.0 | 21.0 | 0.00 | 0.12 | 0.08 | 42 | 1030.4 |
| 20260901180804 | 66 | 259 | 12.0 | 18.0 | 0.00 | 0.12 | 0.08 | 42 | 1030.4 |
| 20260901180303 | 67 | 270 | 14.0 | 22.0 | 0.00 | 0.12 | 0.08 | 42 | 1030.4 |
| 20260901175305 | 66 | 270 | 16.0 | 23.0 | 0.00 | 0.12 | 0.08 | 44 | 1030.4 |
| 20260901174804 | 67 | 275 | 13.0 | 23.0 | 0.00 | 0.12 | 0.08 | 45 | 1030.4 |
| 20260901174304 | 67 | 274 | 10.0 | 17.0 | 0.00 | 0.12 | 0.08 | 46 | 1030.4 |
| 20260901173804 | 66 | 270 | 10.0 | 20.0 | 0.00 | 0.12 | 0.08 | 46 | 1030.8 |
| 20260901173304 | 65 | 251 | 14.0 | 20.0 | 0.00 | 0.12 | 0.08 | 46 | 1030.4 |
| 20260901172804 | 65 | 279 | 14.0 | 20.0 | 0.00 | 0.12 | 0.08 | 46 | 1030.7 |
| 20260901172305 | 66 | 270 | 13.0 | 20.0 | 0.00 | 0.12 | 0.08 | 47 | 1030.8 |
| 20260901170804 | 65 | 290 | 12.0 | 16.0 | 0.00 | 0.12 | 0.08 | 48 | 1030.8 |
| 20260901170304 | 65 | 270 | 13.0 | 17.0 | 0.00 | 0.12 | 0.08 | 47 | 1030.8 |
| 20260901165804 | 66 | 271 | 9.0 | 14.0 | 0.00 | 0.12 | 0.08 | 48 | 1030.8 |
| 20260901164804 | 65 | 226 | 8.0 | 15.0 | 0.00 | 0.12 | 0.08 | 49 | 1030.8 |
| 20260901164304 | 64 | 231 | 7.0 | 14.0 | 0.00 | 0.12 | 0.08 | 49 | 1030.8 |
| 20260901163804 | 64 | 236 | 7.0 | 15.0 | 0.00 | 0.12 | 0.08 | 50 | 1030.8 |
| 20260901163304 | 64 | 246 | 5.0 | 10.0 | 0.00 | 0.12 | 0.08 | 51 | 1030.8 |
| 20260901162804 | 63 | 236 | 9.0 | 13.0 | 0.00 | 0.12 | 0.08 | 53 | 1030.8 |
| 20260901162306 | 63 | 238 | 5.0 | 9.0 | 0.00 | 0.12 | 0.08 | 54 | 1030.8 |
| 20260901161804 | 62 | 270 | 5.0 | 7.0 | 0.00 | 0.12 | 0.08 | 55 | 1031.0 |
| 20260901161304 | 62 | 270 | 3.0 | 7.0 | 0.00 | 0.12 | 0.08 | 56 | 1030.6 |
| 20260901160804 | 61 | 270 | 6.0 | 8.0 | 0.00 | 0.12 | 0.08 | 58 | 1030.8 |
| 20260901160304 | 61 | 270 | 5.0 | 8.0 | 0.00 | 0.12 | 0.08 | 60 | 1030.8 |
| 20260901155804 | 60 | 270 | 5.0 | 10.0 | 0.00 | 0.12 | 0.08 | 62 | 1030.8 |
| 20260901155306 | 59 | 281 | 5.0 | 7.0 | 0.00 | 0.12 | 0.08 | 63 | 1030.8 |
| 20260901154804 | 59 | 241 | 2.0 | 5.0 | 0.00 | 0.12 | 0.08 | 66 | 1030.8 |
| 20260901154303 | 58 | 208 | 1.0 | 3.0 | 0.00 | 0.12 | 0.08 | 68 | 1031.0 |
| 20260901153803 | 58 | 225 | 1.0 | 3.0 | 0.00 | 0.12 | 0.08 | 68 | 1030.8 |
| 20260901152804 | 57 | 225 | 0.0 | 1.0 | 0.00 | 0.12 | 0.08 | 67 | 1030.8 |
| 20260901152306 | 57 | 292 | 1.0 | 2.0 | 0.00 | 0.12 | 0.08 | 67 | 1030.8 |
| 20260901151804 | 57 | 302 | 2.0 | 3.0 | 0.00 | 0.12 | 0.08 | 69 | 1030.8 |
| 20260901150804 | 56 | 270 | 3.0 | 5.0 | 0.00 | 0.12 | 0.08 | 71 | 1030.8 |
| 20260901150304 | 56 | 270 | 4.0 | 6.0 | 0.00 | 0.12 | 0.08 | 71 | 1031.0 |
| 20260901145805 | 56 | 270 | 4.0 | 5.0 | 0.00 | 0.12 | 0.08 | 71 | 1030.8 |
| 20260901145306 | 56 | 270 | 0.0 | 2.0 | 0.00 | 0.12 | 0.08 | 71 | 1030.9 |
| 20260901144304 | 56 | 302 | 3.0 | 5.0 | 0.00 | 0.12 | 0.08 | 70 | 1030.8 |
| 20260901143804 | 56 | 22 | 2.0 | 3.0 | 0.00 | 0.12 | 0.08 | 69 | 1030.8 |
| 20260901143304 | 56 | 135 | 2.0 | 3.0 | 0.00 | 0.12 | 0.08 | 68 | 1030.8 |